Flag for U.S.A. Weather past 2 weeks in Inverness, Florida, U.S.A.

Now
66 °F

Mild.


Feels Like: 66 °F
Forecast: 63 / 84 °F
Wind: No wind

Location: The Villages

Current Time: Mar 4, 2015 at 3:00:06 AM

Latest Report: Mar 4, 2015 at 2:15 AM


Visibility: 7 mi

Pressure: 30.03 "Hg

Humidity: 100%

Dew point: 66 °F

Location of InvernessLocation

Historic Weather in Inverness — Graph

°F

Inverness temperature yesterday

Maximum temperature yesterday: 84 °F (at 3:55 PM)
Minimum temperature yesterday: 63 °F (at 2:55 AM)
Average temperature yesterday: 72 °F

Past Weeks' High & Low Weather Summary

 TemperatureHumidityPressure
High84 °F (Mar 3, 3:55 PM)100% (Feb 17, 12:55 PM)30.37 "Hg (Feb 17, 12:55 PM)
Low28 °F (Feb 20, 4:55 AM)15% (Feb 20, 5:15 PM)29.55 "Hg (Feb 26, 2:15 AM)
Average60 °F77%30.06 "Hg
* Reported Feb 17 1:15 AM — Mar 4 1:55 AM, Inverness, Weather by CustomWeather, © 2015

Note: Actual official high and low records may vary slightly from our data, if they occured in-between our weather recording intervals... More about our weather records

Advertising

Inverness weather history for previous 24 hours

 ConditionsComfort  
Time TempWeatherWind HumidityBarometerVisibility
1:55 AM
Wed, Mar 4
66 °FMild.3 mph100%30.04 "Hg7 mi
1:15 AM68 °FFog.No wind100%30.05 "Hg4 mi
12:55 AM68 °FMild.No wind100%30.06 "Hg9 mi
12:35 AM68 °FMild.No wind100%30.06 "Hg8 mi
12:15 AM70 °FMild.No wind94%30.06 "Hg9 mi
11:55 PM
Tue, Mar 3
70 °FMild.No wind88%30.07 "Hg7 mi
11:35 PM70 °FMild.3 mph88%30.07 "Hg9 mi
11:15 PM70 °FMild.6 mph88%30.07 "Hg8 mi
10:15 PM72 °FMild.7 mph83%30.06 "Hg9 mi
9:55 PM72 °FMild.8 mph83%30.06 "Hg10 mi
9:15 PM73 °FMild.8 mph74%30.05 "Hg9 mi
8:55 PM73 °FMild.7 mph74%30.05 "Hg7 mi
8:35 PM73 °FMild.7 mph74%30.05 "HgN/A
8:15 PM73 °FMild.7 mph78%30.04 "Hg7 mi
7:55 PM75 °FMild.7 mph74%30.04 "Hg9 mi
7:35 PM75 °FMild.5 mph69%30.04 "Hg7 mi
7:15 PM77 °FWarm.6 mph65%30.03 "Hg9 mi
6:55 PM77 °FWarm.6 mph65%30.03 "Hg7 mi
6:35 PM79 °FWarm.5 mph61%30.03 "Hg7 mi
6:15 PM81 °FWarm.6 mph58%30.02 "Hg8 mi
5:55 PM81 °FWarm.8 mph58%30.02 "Hg8 mi
5:35 PM82 °FWarm.10 mph55%30.01 "Hg9 mi
5:15 PM82 °FWarm.10 mph55%30.01 "Hg7 mi
4:55 PM82 °FWarm.9 mph55%30.01 "Hg9 mi
4:15 PM84 °FWarm.9 mph48%30.02 "Hg9 mi
3:55 PM84 °FWarm.9 mph48%30.02 "Hg9 mi
3:35 PM81 °FWarm.5 mph54%30.03 "Hg9 mi
3:15 PM82 °FWarm.9 mph51%30.03 "Hg8 mi
2:35 PM82 °FWarm.10 mph51%30.04 "Hg7 mi
2:15 PM82 °FWarm.10 mph51%30.05 "Hg8 mi
1:55 PM82 °FWarm.9 mph55%30.05 "Hg7 mi
1:35 PM82 °FWarm.9 mph55%30.06 "Hg9 mi
1:15 PM81 °FWarm.10 mph58%30.07 "Hg9 mi
12:55 PM81 °FWarm.8 mph58%30.09 "Hg7 mi
12:35 PM81 °FWarm.9 mph58%30.10 "Hg9 mi
12:15 PM81 °FWarm.9 mph58%30.12 "Hg9 mi
11:55 AM79 °FHaze.9 mph65%30.13 "Hg6 mi
11:35 AM79 °FWarm.7 mph65%30.14 "Hg7 mi
11:15 AM77 °FHaze.7 mph69%30.15 "Hg5 mi
10:55 AM77 °FWarm.6 mph69%30.15 "Hg9 mi
10:35 AM75 °FHaze.9 mph74%30.16 "Hg6 mi
10:15 AM75 °FMild.10 mph78%30.15 "Hg7 mi
9:55 AM75 °FHaze.8 mph78%30.15 "Hg6 mi
9:35 AM73 °FMild.6 mph83%30.15 "Hg9 mi
9:15 AM72 °FFog.7 mph88%30.15 "Hg6 mi
8:55 AM70 °FMild.6 mph88%30.15 "Hg9 mi
8:35 AM68 °FFog.6 mph100%30.14 "Hg6 mi
8:15 AM66 °FFog.3 mph100%30.14 "Hg6 mi
7:55 AM66 °FFog.3 mph100%30.14 "Hg5 mi
7:35 AM63 °FFog.No wind100%30.12 "Hg3 mi
7:15 AM63 °FFog.No wind100%30.12 "Hg1 mi
6:55 AM63 °FFog.No wind100%30.12 "Hg1 mi
6:35 AM63 °FFog.No wind100%30.11 "Hg2 mi
6:15 AM63 °FFog.No wind100%30.11 "Hg3 mi
5:55 AM63 °FFog.No wind100%30.11 "Hg3 mi
5:35 AM63 °FFog.No wind100%30.11 "Hg5 mi
5:15 AM63 °FFog.No wind100%30.11 "Hg3 mi
4:55 AM63 °FFog.No wind100%30.10 "Hg4 mi
4:35 AM63 °FFog.No wind100%30.10 "Hg2 mi
4:15 AM63 °FFog.No wind100%30.10 "Hg0 mi
3:55 AM63 °FFog.No wind100%30.10 "Hg0 mi
3:35 AM63 °FMild.No wind100%30.09 "HgN/A
3:15 AM63 °FFog.No wind100%30.10 "Hg0 mi
Weather by CustomWeather, © 2015

See weather overviewHow to use our weather pages